Regional Weather Roundup
Issued by NWS

Home | Current Version | Previous Version | Text Only | Print | Product List | Glossary On
Versions: 1 2 3 4 5 6 7 8 9 10 11 12 13 14 15 16 17 18 19 20 21 22 23 24 25 26 27 28 29 30 31 32 33 34 35 36 37 38 39 40 41 42 43 44 45 46 47 48 49 50
000
ASUS44 KFWD 280803
RWRTX
NORTH TEXAS HOURLY WEATHER ROUNDUP
NATIONAL WEATHER SERVICE FORT WORTH TX
300 AM CDT FRI JUL 28 2017

NOTE: "FAIR" INDICATES FEW OR NO CLOUDS BELOW 12,000 FEET WITH NO
SIGNIFICANT WEATHER AND/OR OBSTRUCTIONS TO VISIBILITY.

TXZ118-119-280900-
DALLAS/FORT WORTH METROPLEX

CITY           SKY/WX    TMP DP  RH WIND       PRES   REMARKS
DFW AIRPORT    PTCLDY    86  70  58 S14       29.88F HX  90
DALLAS LOVE    PTCLDY    87  69  54 S8        29.89S HX  91
FTW MEACHAM    CLEAR     85  70  60 S14       29.89F
DAL-EXECUTIVE  CLEAR     83  70  64 VRB6      29.90S
FTW-ALLIANCE   PTCLDY    84  69  60 S8        29.89S
FTW-NAS-JRB    CLEAR     84  67  56 S12       29.90S
FTW-SPINKS     CLEAR     82  68  61 S6        29.93R
ARLINGTON      CLEAR     83  70  64 S7        29.91R
GRAND PRAIRIE  CLEAR     83  67  58 S7        29.92S
ADDISON        CLEAR     85  69  58 S6        29.92S
MESQUITE       CLEAR     76  71  83 CALM      29.91S
LANCASTER      CLEAR     79  69  71 S3        29.92S
$$

TXZ091>094-102>105-117-120-121-131>134-280900-
NORTH CENTRAL TEXAS

CITY           SKY/WX    TMP DP  RH WIND       PRES   REMARKS
SHRMAN/DENISON CLEAR     82  69  64 S10       29.90S
GAINESVILLE    PTCLDY    77  67  72 SE3       29.92S
BOWIE          MOCLDY    78  68  70 S5        29.91S
BRIDGEPORT     CLEAR     78  67  67 CALM      29.92S
DECATUR        CLEAR     83  65  54 S12       29.92S
DENTON         CLEAR     77  70  79 S6        29.89S
MCKINNEY       PTCLDY    80  73  79 S7        29.89F
BONHAM         CLOUDY    81  70  69 S10       29.89S
GREENVILLE     CLOUDY    84  72  65 S7        29.91S
ROCKWALL       CLEAR     81  71  71 S9G16     29.91S
TERRELL        CLEAR     79  70  74 S7        29.91S
WAXAHACHIE     CLEAR     80  71  73 S6        29.94R
CLEBURNE       MOCLDY    81  72  74 S7        29.94S
GRANBURY       CLEAR     83  66  55 S7        29.92S
$$

TXZ083>090-098>101-113>116-127>130-139>142-154-155-280900-
WESTERN NORTH TEXAS

CITY           SKY/WX    TMP DP  RH WIND       PRES   REMARKS
WICHITA FALLS  PTCLDY    79  64  60 NE5       29.89R
WF-KICKAPOO    CLEAR     80  64  58 S5        29.91S
VERNON         CLOUDY    79  66  64 E5        29.92S
ABILENE        CLEAR     82  62  50 S9        29.97R
ABILENE-DYESS  CLEAR     82  62  50 S9        29.95S
GRAHAM         CLEAR     81  62  52 S3        29.91R
BRECKENRIDGE   CLEAR     84  61  45 SW10      29.93S
CISCO          CLOUDY    81  63  54 S9        29.97S
EASTLAND       PTCLDY    72  65  78 CALM      29.95S
RANGER         PTCLDY    78  63  59 SW7       29.95S
MINERAL WELLS  CLEAR     77  66  68 SE7       29.91R
STEPHENVILLE   CLEAR     76  65  66 CALM      29.98R
COMANCHE       CLOUDY    82  65  57 S14G20    29.96S
BROWNWOOD      CLOUDY    79  63  57 S7        29.97S
COLEMAN        CLEAR     79  62  55 S6        29.98S
$$

TXZ143>147-156>162-174-175-280900-
CENTRAL TEXAS

CITY           SKY/WX    TMP DP  RH WIND       PRES   REMARKS
WACO           CLEAR     83  70  64 S14       29.93S
WACO-MCGREGOR  PTCLDY    82  70  66 S10       29.93F
HILLSBORO      CLOUDY    83  70  64 S8        29.93S
CORSICANA      CLOUDY    80  72  76 S8        29.94S
MEXIA          PTCLDY    79  71  75 S8        29.94S
HEARNE         PTCLDY    78  73  82 S5        29.96F
CAMERON        CLOUDY    81  70  69 S10       29.95S
TEMPLE         CLEAR     81  70  69 S10       29.96S
KILLEEN        CLEAR     81  66  61 S12       29.96S
KILLEEN-SKYLRK PTCLDY    81  68  64 S12       29.96S
FORT HOOD      PTCLDY   N/A N/A N/A S8        29.93S
HAMILTON       CLOUDY    81  65  59 S13       29.97S
$$

TXZ095>097-106>112-122>126-135>138-148>153-164>167-280900-
EAST TEXAS

CITY           SKY/WX    TMP DP  RH WIND       PRES   REMARKS
PARIS          CLOUDY    79  73  82 S6        29.90S
SULPHUR SPRNGS CLEAR     83  71  66 SW8       29.93R
MOUNT PLEASANT PTCLDY    81  71  71 S3        29.92S
GILMER         PTCLDY    80  73  77 S6        29.91S
MINEOLA        CLEAR     82  72  69 S9        29.91R
TYLER          PTCLDY    82  74  76 S12       29.92S
LONGVIEW       PTCLDY    81  75  82 SW9       29.91S
MARSHALL         N/A     75  71  87 MISG      29.95R
ATHENS         PTCLDY    79  70  73 S6        29.92S
PALESTINE      CLOUDY    80  74  80 S6        29.95S
JACKSONVILLE   CLOUDY    78  74  88 S9        29.96F
HENDERSON      PTCLDY    78  74  86 S3        29.94S
CENTER         PTSUNNY   83  78  87 SW6       29.95S FOG     HX  93
NACOGDOCHES    CLEAR     77  73  88 SW5       29.93S
LUFKIN         CLEAR     77  74  90 S5        29.95S
$$

SUPPLEMENTAL OBSERVATIONS (NWS FORT WORTH AREA)

CITY           SKY/WX    TMP DP  RH WIND       PRES   REMARKS
$$

SUPPLEMENTAL OBSERVATIONS (NWS NORMAN AREA)

CITY           SKY/WX    TMP DP  RH WIND       PRES   REMARKS
GOODLETT         N/A     78  67  67 NE9       29.94S
ODELL            N/A     75  70  84 NE6       29.94S
CROWELL          N/A     80  65  60 N6        29.94R
KNOX CITY        N/A     80  58  46 S9        29.93S
SEYMOUR          N/A     85  58  41 S9        29.91S
$$

SUPPLEMENTAL OBSERVATIONS (NWS SAN ANGELO AREA)

CITY           SKY/WX    TMP DP  RH WIND       PRES   REMARKS
WEINERT          N/A     81  60  48 S9        29.93S
HASKELL          N/A     81  56  41 S9        29.94S
THROCKMORTON     N/A     82  62  50 S9        29.94R
STAMFORD         N/A     82  61  48 S9        29.95S
CLYDE            N/A     80  63  56 S8        30.00S
$$

SUPPLEMENTAL OBSERVATIONS (NWS SHREVEPORT AREA)

CITY           SKY/WX    TMP DP  RH WIND       PRES   REMARKS
$$

SUPPLEMENTAL OBSERVATIONS ARE A COLLECTION OF AUTOMATED INSTRUMENTS
THAT ARE MAINTAINED BY A VARIETY OF FEDERAL AND STATE AGENCIES.
CERTAIN ELEMENTS...SUCH AS HUMIDITY VALUES AND SUSTAINED WIND
SPEEDS...MAY BE APPROXIMATED.





USA.gov is the U.S. government's official web portal to all federal, state and local government web resources and services.